• In Uzbekistan
  • List of Countries
  • For 7 days
  • Water Temperature
  • Satellite Maps
  • Weather Map
  • Weather Widgets
  • user-avatar
    Login

    Hourly Weather Baku

    Today, 26 February, Sunday

    Time Temperature Precipitation Wind Pressure Humidity
    00:00 +8°C° 0 mm 10 mps 760 mmHg 56%
    01:00 +8°C° 0 mm 10 mps 759 mmHg 55%
    02:00 +8°C° 0 mm 10 mps 759 mmHg 53%
    03:00 +9°C° 0 mm 11 mps 758 mmHg 47%
    04:00 +8°C° 0 mm 10 mps 758 mmHg 45%
    05:00 +8°C° 0 mm 10 mps 758 mmHg 44%
    06:00 +8°C° 0 mm 9 mps 758 mmHg 43%
    07:00 +10°C° 0 mm 9 mps 759 mmHg 42%
    08:00 +11°C° 0 mm 9 mps 759 mmHg 41%
    09:00 +12°C° 0 mm 9 mps 760 mmHg 41%
    10:00 +12°C° 0 mm 10 mps 761 mmHg 47%
    11:00 +10°C° 0 mm 12 mps 762 mmHg 53%
    12:00 +10°C° 0 mm 13 mps 762 mmHg 59%
    13:00 +9°C° 0 mm 14 mps 763 mmHg 60%
    14:00 +8°C° 0 mm 15 mps 764 mmHg 62%
    15:00 +5°C° 0 mm 17 mps 765 mmHg 64%
    16:00 +4°C° 0 mm 16 mps 766 mmHg 63%
    17:00 +2°C° 0 mm 16 mps 767 mmHg 62%
    18:00 +1°C° 0 mm 15 mps 768 mmHg 61%
    19:00 +1°C° 0 mm 14 mps 768 mmHg 58%
    20:00 +1°C° 0 mm 13 mps 769 mmHg 55%
    21:00 +2°C° 0 mm 12 mps 770 mmHg 53%
    22:00 +2°C° 0 mm 11 mps 770 mmHg 53%
    23:00 +2°C° 0 mm 10 mps 771 mmHg 53%

    Tomorrow, 27 February, Monday

    Time Temperature Precipitation Wind Pressure Humidity
    00:00 +2°C° 0 mm 8 mps 771 mmHg 53%
    01:00 +3°C° 0 mm 7 mps 771 mmHg 53%
    02:00 +3°C° 0 mm 6 mps 771 mmHg 54%
    03:00 +3°C° 0 mm 5 mps 771 mmHg 54%
    04:00 +4°C° 0 mm 4 mps 771 mmHg 55%
    05:00 +4°C° 0 mm 3 mps 771 mmHg 55%
    06:00 +4°C° 0 mm 3 mps 771 mmHg 55%
    07:00 +4°C° 0 mm 3 mps 771 mmHg 55%
    08:00 +5°C° 0 mm 3 mps 771 mmHg 55%
    09:00 +5°C° 0 mm 4 mps 771 mmHg 54%
    10:00 +6°C° 0 mm 4 mps 771 mmHg 55%
    11:00 +6°C° 0 mm 5 mps 770 mmHg 56%
    12:00 +7°C° 0 mm 6 mps 770 mmHg 56%
    13:00 +7°C° 0 mm 6 mps 769 mmHg 58%
    14:00 +7°C° 0 mm 6 mps 769 mmHg 59%
    15:00 +8°C° 0 mm 7 mps 768 mmHg 61%
    16:00 +6°C° 0 mm 7 mps 768 mmHg 64%
    17:00 +7°C° 0 mm 6 mps 768 mmHg 68%
    18:00 +5°C° 0 mm 6 mps 768 mmHg 72%
    19:00 +5°C° 0 mm 6 mps 767 mmHg 74%
    20:00 +5°C° 0 mm 6 mps 767 mmHg 75%
    21:00 +5°C° 0 mm 6 mps 767 mmHg 77%
    22:00 +5°C° 0 mm 6 mps 767 mmHg 79%
    23:00 +5°C° 0 mm 5 mps 767 mmHg 81%

    Day after tomorrow, 28 February, Tuesday

    Time Temperature Precipitation Wind Pressure Humidity
    00:00 +5°C° 0 mm 5 mps 766 mmHg 83%
    01:00 +5°C° 0 mm 5 mps 766 mmHg 84%
    02:00 +5°C° 0 mm 4 mps 766 mmHg 85%
    03:00 +5°C° 0 mm 4 mps 766 mmHg 86%
    04:00 +4°C° 0 mm 3 mps 766 mmHg 86%
    05:00 +4°C° 0 mm 3 mps 767 mmHg 86%
    06:00 +5°C° 0 mm 2 mps 767 mmHg 86%
    07:00 +6°C° 0 mm 2 mps 767 mmHg 81%
    08:00 +7°C° 0 mm 2 mps 768 mmHg 76%
    09:00 +8°C° 0 mm 2 mps 768 mmHg 71%
    10:00 +8°C° 0 mm 2 mps 768 mmHg 67%
    11:00 +9°C° 0 mm 2 mps 768 mmHg 63%
    12:00 +11°C° 0 mm 1 mps 768 mmHg 59%
    13:00 +10°C° 0 mm 2 mps 768 mmHg 58%
    14:00 +10°C° 0 mm 2 mps 767 mmHg 58%
    15:00 +12°C° 0 mm 2 mps 767 mmHg 58%
    16:00 +10°C° 0 mm 2 mps 767 mmHg 63%
    17:00 +9°C° 0 mm 2 mps 768 mmHg 69%
    18:00 +8°C° 0 mm 2 mps 768 mmHg 74%
    19:00 +8°C° 0 mm 2 mps 768 mmHg 77%
    20:00 +8°C° 0 mm 1 mps 768 mmHg 80%
    21:00 +8°C° 0 mm 1 mps 769 mmHg 83%
    22:00 +8°C° 0 mm 1 mps 769 mmHg 84%
    23:00 +7°C° 0 mm 1 mps 769 mmHg 85%

    1 March, Wednesday

    Time Temperature Precipitation Wind Pressure Humidity
    00:00 +7°C° 0 mm 1 mps 769 mmHg 86%
    01:00 +7°C° 0 mm 1 mps 768 mmHg 86%
    02:00 +7°C° 0 mm 1 mps 768 mmHg 87%
    03:00 +6°C° 0 mm 1 mps 768 mmHg 87%
    04:00 +6°C° 0 mm 1 mps 768 mmHg 86%
    05:00 +6°C° 0 mm 1 mps 768 mmHg 85%
    06:00 +6°C° 0 mm 1 mps 769 mmHg 84%
    07:00 +8°C° 0 mm 1 mps 769 mmHg 76%
    08:00 +8°C° 0 mm 2 mps 769 mmHg 68%
    09:00 +10°C° 0 mm 2 mps 770 mmHg 60%
    10:00 +11°C° 0 mm 3 mps 769 mmHg 57%
    11:00 +12°C° 0 mm 3 mps 769 mmHg 53%
    12:00 +13°C° 0 mm 4 mps 769 mmHg 49%
    13:00 +13°C° 0 mm 5 mps 768 mmHg 51%
    14:00 +13°C° 0 mm 5 mps 768 mmHg 54%
    15:00 +13°C° 0 mm 6 mps 767 mmHg 56%
    16:00 +10°C° 0 mm 6 mps 767 mmHg 62%
    17:00 +9°C° 0 mm 6 mps 767 mmHg 68%
    18:00 +8°C° 0 mm 5 mps 767 mmHg 74%
    19:00 +8°C° 0 mm 5 mps 767 mmHg 76%
    20:00 +8°C° 0 mm 5 mps 767 mmHg 78%
    21:00 +7°C° 0 mm 5 mps 767 mmHg 81%
    22:00 +7°C° 0 mm 5 mps 767 mmHg 81%
    23:00 +7°C° 0 mm 5 mps 766 mmHg 82%

    2 March, Thursday

    Time Temperature Precipitation Wind Pressure Humidity
    00:00 +7°C° 0 mm 5 mps 766 mmHg 83%
    01:00 +7°C° 0 mm 5 mps 766 mmHg 83%
    02:00 +7°C° 0 mm 5 mps 765 mmHg 83%
    03:00 +7°C° 0 mm 4 mps 765 mmHg 83%
    04:00 +7°C° 0 mm 5 mps 765 mmHg 83%
    05:00 +7°C° 0 mm 5 mps 765 mmHg 84%
    06:00 +6°C° 0 mm 5 mps 765 mmHg 84%
    07:00 +8°C° 0 mm 5 mps 765 mmHg 79%
    08:00 +9°C° 0 mm 5 mps 765 mmHg 73%
    09:00 +10°C° 0 mm 6 mps 764 mmHg 68%
    10:00 +11°C° 0 mm 6 mps 764 mmHg 63%
    11:00 +11°C° 0 mm 6 mps 764 mmHg 58%
    12:00 +13°C° 0 mm 6 mps 763 mmHg 53%
    13:00 +13°C° 0 mm 6 mps 763 mmHg 54%
    14:00 +13°C° 0 mm 6 mps 762 mmHg 54%
    15:00 +13°C° 0 mm 6 mps 762 mmHg 54%
    16:00 +11°C° 0 mm 6 mps 762 mmHg 60%
    17:00 +10°C° 0 mm 5 mps 762 mmHg 65%
    18:00 +9°C° 0 mm 5 mps 761 mmHg 70%
    19:00 +10°C° 0 mm 4 mps 761 mmHg 71%
    20:00 +10°C° 0 mm 4 mps 761 mmHg 71%
    21:00 +9°C° 0 mm 3 mps 761 mmHg 71%
    22:00 +9°C° 0 mm 3 mps 761 mmHg 70%
    23:00 +9°C° 0 mm 3 mps 761 mmHg 68%

    3 March, Friday

    Time Temperature Precipitation Wind Pressure Humidity
    00:00 +9°C° 0 mm 3 mps 760 mmHg 67%
    01:00 +9°C° 0 mm 3 mps 760 mmHg 67%
    02:00 +8°C° 0 mm 4 mps 760 mmHg 67%
    03:00 +8°C° 0 mm 4 mps 760 mmHg 67%
    04:00 +8°C° 0 mm 4 mps 760 mmHg 69%
    05:00 +8°C° 0 mm 4 mps 760 mmHg 71%
    06:00 +8°C° 0 mm 4 mps 760 mmHg 73%
    07:00 +10°C° 0 mm 4 mps 760 mmHg 70%
    08:00 +9°C° 0 mm 5 mps 760 mmHg 67%
    09:00 +10°C° 0 mm 5 mps 760 mmHg 64%
    10:00 +12°C° 0 mm 5 mps 760 mmHg 62%
    11:00 +13°C° 0 mm 5 mps 760 mmHg 59%
    12:00 +13°C° 0 mm 5 mps 760 mmHg 56%
    13:00 +13°C° 0 mm 5 mps 760 mmHg 57%
    14:00 +13°C° 0 mm 6 mps 760 mmHg 58%
    15:00 +13°C° 0 mm 6 mps 759 mmHg 59%
    16:00 +12°C° 0 mm 5 mps 760 mmHg 63%
    17:00 +10°C° 0 mm 5 mps 760 mmHg 68%
    18:00 +10°C° 0 mm 4 mps 760 mmHg 73%
    19:00 +10°C° 0 mm 4 mps 760 mmHg 74%
    20:00 +10°C° 0 mm 3 mps 761 mmHg 75%
    21:00 +9°C° 0 mm 2 mps 761 mmHg 75%
    22:00 +9°C° 0 mm 2 mps 761 mmHg 75%
    23:00 +10°C° 0 mm 1 mps 761 mmHg 74%
    Show more